Hourly Weather Barnowiec

Today, 20 September, Sunday

Time Temperature Precipitation Wind Pressure Humidity
00:00 +9°C° 0 mm 1 mps 712 mmHg 73%
01:00 +8°C° 0 mm 0 mps 711 mmHg 71%
02:00 +8°C° 0 mm 0 mps 711 mmHg 70%
03:00 +8°C° 0 mm 0 mps 711 mmHg 70%
04:00 +8°C° 0 mm 0 mps 711 mmHg 69%
05:00 +9°C° 0 mm 0 mps 711 mmHg 67%
06:00 +10°C° 0 mm 0 mps 711 mmHg 65%
07:00 +11°C° 0 mm 0 mps 711 mmHg 62%
08:00 +14°C° 0 mm 1 mps 712 mmHg 56%
09:00 +16°C° 0 mm 1 mps 712 mmHg 50%
10:00 +19°C° 0 mm 1 mps 712 mmHg 43%
11:00 +20°C° 0 mm 1 mps 712 mmHg 42%
12:00 +21°C° 0 mm 1 mps 712 mmHg 41%
13:00 +21°C° 0 mm 2 mps 712 mmHg 40%
14:00 +20°C° 0 mm 2 mps 712 mmHg 45%
15:00 +20°C° 0 mm 2 mps 711 mmHg 50%
16:00 +19°C° 0 mm 2 mps 711 mmHg 55%
17:00 +18°C° 0 mm 1 mps 711 mmHg 60%
18:00 +15°C° 0 mm 1 mps 710 mmHg 65%
19:00 +13°C° 0 mm 1 mps 710 mmHg 70%
20:00 +12°C° 0 mm 1 mps 710 mmHg 70%
21:00 +12°C° 0 mm 1 mps 710 mmHg 70%
22:00 +12°C° 0 mm 1 mps 710 mmHg 70%
23:00 +11°C° 0 mm 1 mps 710 mmHg 70%

Tomorrow, 21 September, Monday

Time Temperature Precipitation Wind Pressure Humidity
00:00 +11°C° 0 mm 1 mps 710 mmHg 70%
01:00 +10°C° 0 mm 1 mps 710 mmHg 70%
02:00 +10°C° 0 mm 1 mps 710 mmHg 70%
03:00 +10°C° 0 mm 1 mps 710 mmHg 69%
04:00 +10°C° 0 mm 1 mps 710 mmHg 68%
05:00 +11°C° 0 mm 1 mps 710 mmHg 66%
06:00 +12°C° 0 mm 1 mps 710 mmHg 63%
07:00 +13°C° 0 mm 1 mps 711 mmHg 61%
08:00 +16°C° 0 mm 1 mps 711 mmHg 54%
09:00 +19°C° 0 mm 1 mps 712 mmHg 47%
10:00 +20°C° 0 mm 0 mps 712 mmHg 40%
11:00 +21°C° 0 mm 0 mps 712 mmHg 38%
12:00 +22°C° 0 mm 0 mps 712 mmHg 37%
13:00 +23°C° 0 mm 0 mps 712 mmHg 35%
14:00 +24°C° 0 mm 1 mps 712 mmHg 39%
15:00 +23°C° 0 mm 1 mps 711 mmHg 44%
16:00 +22°C° 0 mm 1 mps 711 mmHg 48%
17:00 +20°C° 0 mm 1 mps 711 mmHg 53%
18:00 +16°C° 0 mm 1 mps 710 mmHg 58%
19:00 +14°C° 0 mm 1 mps 710 mmHg 63%
20:00 +14°C° 0 mm 1 mps 710 mmHg 64%
21:00 +13°C° 0 mm 1 mps 710 mmHg 65%
22:00 +13°C° 0 mm 1 mps 710 mmHg 66%
23:00 +12°C° 0 mm 1 mps 710 mmHg 67%

Day after tomorrow, 22 September, Tuesday

Time Temperature Precipitation Wind Pressure Humidity
00:00 +12°C° 0 mm 1 mps 710 mmHg 69%
01:00 +12°C° 0 mm 1 mps 710 mmHg 70%
02:00 +12°C° 0 mm 1 mps 709 mmHg 70%
03:00 +11°C° 0 mm 1 mps 709 mmHg 70%
04:00 +11°C° 0 mm 1 mps 709 mmHg 71%
05:00 +12°C° 0 mm 1 mps 709 mmHg 69%
06:00 +13°C° 0 mm 1 mps 709 mmHg 67%
07:00 +14°C° 0 mm 1 mps 709 mmHg 65%
08:00 +16°C° 0 mm 1 mps 710 mmHg 58%
09:00 +19°C° 0 mm 2 mps 710 mmHg 51%
10:00 +21°C° 0 mm 2 mps 710 mmHg 44%
11:00 +23°C° 0 mm 2 mps 710 mmHg 42%
12:00 +24°C° 0 mm 3 mps 710 mmHg 39%
13:00 +25°C° 0 mm 3 mps 710 mmHg 37%
14:00 +24°C° 0 mm 3 mps 709 mmHg 40%
15:00 +24°C° 0 mm 3 mps 708 mmHg 44%
16:00 +22°C° 0 mm 3 mps 708 mmHg 48%
17:00 +19°C° 0 mm 3 mps 708 mmHg 53%
18:00 +17°C° 0 mm 2 mps 707 mmHg 57%
19:00 +15°C° 0 mm 2 mps 707 mmHg 62%
20:00 +15°C° 0 mm 2 mps 707 mmHg 63%
21:00 +14°C° 0 mm 2 mps 706 mmHg 65%
22:00 +14°C° 0 mm 2 mps 706 mmHg 66%
23:00 +14°C° 0 mm 2 mps 706 mmHg 65%

23 September, Wednesday

Time Temperature Precipitation Wind Pressure Humidity
00:00 +14°C° 0 mm 2 mps 706 mmHg 65%
01:00 +14°C° 0 mm 2 mps 706 mmHg 65%
02:00 +13°C° 0 mm 2 mps 706 mmHg 65%
03:00 +13°C° 0 mm 2 mps 705 mmHg 66%
04:00 +13°C° 0 mm 2 mps 705 mmHg 67%
05:00 +14°C° 0 mm 2 mps 705 mmHg 66%
06:00 +13°C° 0 mm 3 mps 705 mmHg 66%
07:00 +14°C° 0 mm 3 mps 705 mmHg 66%
08:00 +17°C° 0 mm 3 mps 705 mmHg 60%
09:00 +19°C° 0 mm 4 mps 705 mmHg 55%
10:00 +21°C° 0 mm 4 mps 705 mmHg 50%
11:00 +22°C° 0 mm 5 mps 705 mmHg 49%
12:00 +22°C° 0 mm 5 mps 705 mmHg 48%
13:00 +23°C° 0 mm 5 mps 705 mmHg 47%
14:00 +22°C° 0 mm 4 mps 705 mmHg 51%
15:00 +21°C° 0 mm 4 mps 704 mmHg 54%
16:00 +21°C° 0 mm 4 mps 704 mmHg 58%
17:00 +19°C° 0.1 mm 3 mps 704 mmHg 64%
18:00 +17°C° 0.1 mm 3 mps 704 mmHg 70%
19:00 +16°C° 0.1 mm 2 mps 703 mmHg 76%
20:00 +15°C° 0.3 mm 2 mps 703 mmHg 79%
21:00 +15°C° 0.3 mm 2 mps 703 mmHg 82%
22:00 +15°C° 0.3 mm 2 mps 703 mmHg 85%
23:00 +14°C° 0 mm 2 mps 703 mmHg 86%

24 September, Thursday

Time Temperature Precipitation Wind Pressure Humidity
00:00 +14°C° 0 mm 2 mps 703 mmHg 86%
01:00 +14°C° 0 mm 2 mps 703 mmHg 86%
02:00 +14°C° 0 mm 2 mps 703 mmHg 87%
03:00 +14°C° 0 mm 2 mps 703 mmHg 87%
04:00 +14°C° 0 mm 2 mps 703 mmHg 88%
05:00 +14°C° 0 mm 2 mps 704 mmHg 86%
06:00 +15°C° 0 mm 2 mps 704 mmHg 84%
07:00 +15°C° 0 mm 2 mps 704 mmHg 82%
08:00 +18°C° 0 mm 2 mps 705 mmHg 74%
09:00 +20°C° 0 mm 2 mps 705 mmHg 66%
10:00 +23°C° 0 mm 2 mps 706 mmHg 58%
11:00 +24°C° 0.3 mm 2 mps 706 mmHg 57%
12:00 +24°C° 0.3 mm 2 mps 706 mmHg 55%
13:00 +25°C° 0.3 mm 2 mps 706 mmHg 53%
14:00 +24°C° 0.5 mm 2 mps 706 mmHg 59%
15:00 +23°C° 0.5 mm 1 mps 705 mmHg 65%
16:00 +22°C° 0.5 mm 1 mps 705 mmHg 71%
17:00 +20°C° 0.1 mm 1 mps 705 mmHg 76%
18:00 +16°C° 0.1 mm 0 mps 705 mmHg 80%
19:00 +15°C° 0.1 mm 0 mps 705 mmHg 85%
20:00 +14°C° 0 mm 0 mps 705 mmHg 86%
21:00 +14°C° 0 mm 0 mps 705 mmHg 87%
22:00 +15°C° 0 mm 1 mps 705 mmHg 88%
23:00 +14°C° 0 mm 1 mps 704 mmHg 90%

25 September, Friday

Time Temperature Precipitation Wind Pressure Humidity
00:00 +14°C° 0 mm 1 mps 704 mmHg 91%
01:00 +14°C° 0 mm 1 mps 703 mmHg 92%
02:00 +14°C° 0 mm 2 mps 703 mmHg 93%
03:00 +13°C° 0 mm 2 mps 703 mmHg 93%
04:00 +13°C° 0 mm 2 mps 702 mmHg 94%
05:00 +13°C° 0 mm 3 mps 702 mmHg 91%
06:00 +14°C° 0 mm 3 mps 701 mmHg 89%
07:00 +14°C° 0 mm 4 mps 701 mmHg 86%
08:00 +15°C° 0 mm 4 mps 701 mmHg 80%
09:00 +16°C° 0 mm 5 mps 701 mmHg 75%
10:00 +19°C° 0 mm 5 mps 700 mmHg 69%
11:00 +19°C° 0 mm 6 mps 700 mmHg 66%
12:00 +20°C° 0 mm 6 mps 699 mmHg 64%
13:00 +20°C° 0 mm 6 mps 699 mmHg 61%
14:00 +20°C° 0.1 mm 5 mps 698 mmHg 64%
15:00 +19°C° 0.1 mm 4 mps 698 mmHg 67%
16:00 +18°C° 0.1 mm 3 mps 697 mmHg 70%
17:00 +17°C° 0.3 mm 3 mps 697 mmHg 76%
18:00 +16°C° 0.3 mm 3 mps 696 mmHg 81%
19:00 +14°C° 0.3 mm 3 mps 696 mmHg 87%
20:00 +13°C° 0.2 mm 3 mps 696 mmHg 90%
21:00 +14°C° 0.2 mm 2 mps 696 mmHg 93%
22:00 +13°C° 0.2 mm 1 mps 696 mmHg 96%
23:00 +13°C° 0.9 mm 1 mps 695 mmHg 96%
Show more